Location: Shenandoah County Park
(38.9356°N, 78.4524°W)
Time: 22:49:11
(UTC-05:00)

Altair - Visible Passes

Search period start: 30 November 2023 00:00
Search period end: 10 December 2023 00:00
Orbit: 1501 x 1682 km, 47.2° (Epoch: 29 November)

Date Brightness Start Highest point End Pass type
(mag) Time Alt. Az. Time Alt. Az. Time Alt. Az.
30 Nov 10.0 18:30:20 10° W 18:34:24 14° WSW 18:38:31 10° SSW visible
01 Dec 10.0 18:04:25 10° W 18:09:21 16° SW 18:14:19 10° SSW visible
02 Dec 10.0 17:38:43 10° W 17:44:19 18° SW 17:49:56 10° SSW visible
03 Dec 9.7 06:47:28 10° S 06:55:30 29° SE 07:03:17 10° ENE visible
03 Dec 10.0 17:13:06 10° W 17:19:15 20° SW 17:25:26 10° S visible
04 Dec 9.8 06:22:42 10° S 06:30:24 27° SE 06:37:53 10° ENE visible
05 Dec 9.8 05:57:58 10° S 06:05:18 24° SE 06:12:27 10° E visible
06 Dec 9.8 05:33:17 10° S 05:40:12 22° SE 05:46:56 10° E visible
07 Dec 9.9 05:08:42 10° SSE 05:15:06 19° SE 05:21:22 10° E visible
08 Dec 9.9 04:44:13 10° SSE 04:50:01 17° SE 04:55:42 10° E visible
08 Dec 8.2 06:43:45 10° SW 06:53:28 62° SE 07:02:49 10° ENE visible
09 Dec 9.9 04:19:54 10° SSE 04:24:56 15° ESE 04:29:54 10° E visible
09 Dec 8.3 06:18:40 10° SW 06:28:17 58° SE 06:37:35 10° ENE visible
